Location: Newark
(48.8519°N, 2.3472°E)
Time: 03:35:37
(UTC+00:00)

N. Korean satellite - Visible Passes

Search period start: 14 October 2019 00:00
Search period end: 24 October 2019 00:00
Orbit: 455 x 508 km, 97.2° (Epoch: 13 October)

Date Brightness Start Highest point End Pass type
(mag) Time Alt. Az. Time Alt. Az. Time Alt. Az.
14 Oct 10.1 18:01:02 10° WSW 18:02:52 14° W 18:04:43 10° WNW visible
15 Oct 8.6 05:21:32 10° NNE 05:24:48 33° E 05:28:06 10° SSE visible
15 Oct 9.2 17:34:27 10° SSW 17:37:22 26° W 17:40:19 10° NW visible
16 Oct 9.8 04:56:49 10° NE 04:59:22 18° E 05:01:54 10° SE visible
18 Oct 7.5 05:38:50 10° NNE 05:42:22 55° E 05:45:57 10° S visible
18 Oct 9.9 17:52:43 10° SW 17:55:00 17° W 17:57:18 10° NW visible
19 Oct 9.0 05:13:50 10° NE 05:16:59 28° E 05:20:09 10° SSE visible
19 Oct 8.7 17:26:25 10° SSW 17:29:31 31° W 17:32:40 10° NNW visible
20 Oct 10.1 04:49:18 10° NE 04:51:31 15° E 04:53:43 10° SE visible
21 Oct 10.5 18:11:47 10° WSW 18:12:38 11° W 18:13:30 10° WNW visible
22 Oct 8.0 05:31:03 10° NNE 05:34:33 44° E 05:38:04 10° S visible
22 Oct 9.6 17:44:28 10° SW 17:47:05 20° W 17:49:45 10° NW visible
23 Oct 9.4 05:06:08 10° NE 05:09:08 23° E 05:12:08 10° SSE visible
23 Oct 8.2 17:18:23 10° SSW 17:21:38 39° W 17:24:56 10° NNW visible
